Location: �bnet
(46.9957°N, 8.4908°E)
Time: 01:05:54
(UTC+00:00)

Cosmos 2366 rocket - Pass Details

Date: 11 May 2021
Orbit: 956 x 996 km, 82.9° (Epoch: 23 June)

Event Time Altitude Azimuth Distance (km) Brightness Sun altitude
Rises 21:45:26 0° 355° (N) 3,652 8.3 -21.3°
Reaches altitude 10° 21:48:02 10° 1° (N) 2,705 7.2 -21.5°
Maximum altitude 21:54:01 49° 75° (ENE) 1,228 4.4 -21.9°
Enters shadow 21:56:01 37° 123° (ESE) 1,471 4.5 -22.0°
